This is the latest recevied weather packets stored in our database for station/object W7TTE. If no packets are shown the sender has not sent any weather packets the latest 1 day(s).
| Time | Temp. | Humidity | Pressure | Rain* | Wind** | Luminosity | Snow |
|---|---|---|---|---|---|---|---|
| 1777987589 | 17.22° C | 60% | 1014 hPa | 0 mm | 0 m/s | 27 W/m² | - |
| 1777987287 | 17.22° C | 60% | 1013.9 hPa | 0 mm | 0 m/s | 25 W/m² | - |
| 1777986983 | 17.22° C | 60% | 1013.6 hPa | 0 mm | 0 m/s | 19 W/m² | - |
| 1777986681 | 17.22° C | 60% | 1013.6 hPa | 0 mm | 0 m/s | 17 W/m² | - |
| 1777986379 | 17.22° C | 60% | 1013.6 hPa | 0 mm | 0 m/s | 15 W/m² | - |
| 1777986078 | 17.78° C | 60% | 1013.4 hPa | 0 mm | 0.45 m/s, 224° | 13 W/m² | - |
| 1777985773 | 17.78° C | 59% | 1013.4 hPa | 0 mm | 0.45 m/s, 180° | 11 W/m² | - |
| 1777985471 | 17.78° C | 60% | 1013.4 hPa | 0 mm | 0.45 m/s, 218° | 9 W/m² | - |
| 1777985167 | 17.78° C | 61% | 1013.3 hPa | 0 mm | 0.45 m/s, 186° | 6 W/m² | - |
| 1777984863 | 17.78° C | 60% | 1013.3 hPa | 0 mm | 0.45 m/s, 197° | 4 W/m² | - |
| 1777984559 | 17.78° C | 61% | 1013.4 hPa | 0 mm | 0.45 m/s, 197° | 2 W/m² | - |
| 1777984256 | 17.78° C | 62% | 1013.1 hPa | 0 mm | 0 m/s | 1 W/m² | - |
| 1777983953 | 17.78° C | 61% | 1013.1 hPa | 0 mm | 0.45 m/s, 187° | 0 W/m² | - |
| 1777983650 | 17.78° C | 61% | 1013.1 hPa | 0 mm | 0 m/s | 0 W/m² | - |
| 1777983346 | 17.78° C | 61% | 1013.1 hPa | 0 mm | 0 m/s | 0 W/m² | - |
| 1777983043 | 17.78° C | 61% | 1013.1 hPa | 0 mm | 0.45 m/s, 173° | 0 W/m² | - |
| 1777982740 | 17.78° C | 61% | 1013.3 hPa | 0 mm | 0.89 m/s, 216° | 0 W/m² | - |
| 1777982435 | 17.78° C | 61% | 1012.9 hPa | 0 mm | 0.89 m/s, 188° | 0 W/m² | - |
| 1777982130 | 17.22° C | 61% | 1012.9 hPa | 0 mm | 0.45 m/s, 200° | 0 W/m² | - |
| 1777981828 | 17.22° C | 61% | 1013 hPa | 0 mm | 0.45 m/s, 188° | 0 W/m² | - |
| 1777981525 | 17.22° C | 60% | 1012.9 hPa | 0 mm | 0.45 m/s, 201° | 0 W/m² | - |
| 1777981221 | 17.22° C | 60% | 1012.8 hPa | 0 mm | 0.45 m/s, 183° | 0 W/m² | - |
| 1777980917 | 17.78° C | 60% | 1012.8 hPa | 0 mm | 0.45 m/s, 158° | 0 W/m² | - |
| 1777980614 | 17.78° C | 60% | 1012.9 hPa | 0 mm | 0 m/s | 0 W/m² | - |
| 1777980310 | 17.78° C | 59% | 1012.9 hPa | 0 mm | 0.45 m/s, 140° | 0 W/m² | - |
* Rain latest hour (hover to see other rain measurements)
** Current wind speed in m/s (hover to see current wind gust speed)